GFSGL_850_thetae_021.txt.gz
Theta_e
327 327 328 328 330 326 325 324 326 327 325 325 326 326 325 325 325 325 325 327 328 326 326 326 325 327 328 328 328 328 328 327 329 327 328 328 327 327 326 326 327 329 327
327 326 328 329 329 327 325 326 326 326 326 327 327 326 324 324 325 327 327 328 325 326 326 327 327 328 328 328 328 327 327 326 325 327 328 329 328 326 326 327 328 328 317
326 326 327 328 329 327 327 327 327 327 327 328 328 327 327 326 328 328 328 328 327 327 325 327 327 327 327 327 327 327 326 327 327 327 328 328 328 328 328 327 326 314 312
324 325 325 328 328 325 327 326 327 328 326 327 328 327 328 328 328 328 328 328 328 327 324 326 327 327 326 325 326 326 326 326 327 327 325 325 327 326 322 323 317 314 313
321 324 323 327 327 327 330 328 327 329 327 327 328 328 328 328 328 326 327 326 325 326 326 325 325 326 325 325 325 326 327 326 326 323 323 324 326 323 314 312 310 312 316
319 320 321 325 328 329 327 330 330 326 326 325 325 328 328 327 328 328 328 328 328 327 328 327 326 326 326 325 324 325 323 325 323 319 318 317 317 316 316 316 316 317 320
319 320 320 323 328 329 327 326 327 325 324 323 322 325 328 329 328 328 328 328 328 328 327 327 327 327 327 326 323 323 323 321 322 321 322 321 321 322 320 319 321 320 321
319 320 320 322 323 328 329 327 325 325 325 324 319 324 324 325 328 329 329 329 328 328 327 328 328 328 325 324 323 322 325 323 325 325 323 322 323 322 322 323 324 325 326
320 320 320 318 323 322 328 328 326 326 326 325 317 317 317 320 321 323 325 327 327 328 329 328 329 323 323 324 319 322 323 322 322 324 326 325 325 325 325 326 326 325 320
321 322 321 319 321 321 325 326 326 326 326 324 322 315 317 319 322 319 319 322 322 323 321 320 320 318 319 318 317 317 317 316 316 315 313 312 312 312 313 314 314 314 312
322 322 321 319 319 320 322 324 324 322 322 326 325 322 315 315 320 322 320 318 318 319 320 319 318 318 315 314 314 315 314 314 313 314 314 314 317 318 317 316 315 314 313
322 322 322 321 318 318 320 322 322 322 324 327 326 325 322 314 313 317 320 320 317 316 316 315 315 314 311 314 316 316 316 315 314 312 312 315 318 319 319 318 316 314 314
323 322 323 322 320 318 318 320 322 321 326 326 327 325 322 315 310 312 318 317 313 311 310 311 311 312 312 314 314 314 313 312 311 311 315 319 320 319 318 317 316 315 314
323 323 323 322 321 319 319 319 319 320 325 326 325 324 320 316 309 309 314 314 311 313 311 311 313 314 314 314 313 312 311 312 312 315 318 319 320 319 318 317 316 314 309
324 324 323 323 322 321 320 319 319 316 315 320 321 320 316 315 308 306 310 312 313 315 316 315 314 315 314 312 312 312 318 319 317 319 321 321 319 319 317 313 307 301 301
324 324 323 323 322 322 321 319 320 317 315 317 320 317 316 315 314 308 307 312 315 318 318 318 317 313 312 313 318 319 320 320 320 321 321 320 318 313 310 303 300 301 300
324 324 323 323 322 322 322 320 318 319 318 319 319 319 319 319 319 314 309 310 313 318 319 315 313 315 321 323 323 323 322 321 321 321 321 319 315 308 299 298 298 296 296
323 324 324 324 323 322 322 322 318 318 319 321 317 318 319 319 321 319 315 311 312 314 315 313 314 320 323 323 324 324 322 322 321 321 318 314 303 299 298 296 297 296 296
327 325 324 324 324 323 323 323 321 319 319 318 318 318 319 319 320 320 319 317 315 315 315 313 317 321 323 324 325 324 324 322 320 316 311 299 298 297 296 297 296 296 296
329 327 325 325 324 324 325 324 323 320 321 320 318 317 318 319 319 320 320 319 319 316 314 314 317 318 324 326 325 324 322 319 316 304 298 297 296 296 296 296 296 296 297
330 330 327 325 325 325 324 326 324 323 321 321 320 318 317 318 319 319 319 319 318 317 315 316 317 317 321 326 324 323 321 318 303 298 297 296 296 297 297 296 296 296 297
331 331 330 327 326 326 325 324 326 324 323 321 320 320 320 318 316 318 318 318 318 317 316 317 320 323 323 325 324 323 320 307 298 297 296 296 296 297 297 296 296 295 295
332 331 332 330 327 326 326 326 325 325 324 323 321 321 321 320 319 318 316 318 318 318 318 316 316 321 324 323 322 320 308 298 297 299 297 297 298 297 297 297 297 295 293
331 331 331 332 331 328 327 326 327 325 325 324 323 323 322 321 321 320 318 317 318 318 318 317 319 323 322 319 317 303 297 300 307 300 298 297 297 297 298 298 297 294 293
332 331 330 331 331 331 330 328 328 326 325 324 325 324 323 322 321 320 318 317 316 316 318 319 321 319 318 313 301 297 301 306 300 297 297 297 298 297 297 297 295 292 292
329 329 330 330 330 330 331 330 329 329 328 327 325 325 324 323 321 319 319 317 318 320 321 321 318 316 310 302 299 303 306 302 297 295 296 298 297 297 296 294 292 292 291

GFSGL_850_thetae_024.txt.gz
Theta_e
327 327 328 328 327 325 326 326 326 325 326 326 326 326 326 326 325 325 325 324 323 325 327 328 328 328 328 328 327 327 329 328 328 328 328 328 328 327 326 327 326 327 328
326 326 328 329 327 325 327 325 326 326 326 326 325 325 325 325 325 325 324 326 327 327 326 326 326 327 328 328 328 328 328 328 329 328 328 327 326 326 325 325 326 327 328
325 326 328 328 327 327 327 327 327 327 327 327 325 324 324 324 325 324 325 327 326 326 325 325 326 328 328 328 328 327 327 328 328 328 328 327 327 326 326 326 326 327 327
323 326 325 327 327 327 324 327 326 327 327 328 328 326 324 326 326 327 327 326 326 325 327 327 328 328 328 328 327 327 326 326 327 327 328 329 328 326 326 327 328 326 313
322 325 323 326 325 328 325 326 327 326 327 325 327 327 327 327 327 327 327 326 326 326 326 327 327 327 327 327 326 326 326 327 326 327 327 328 328 327 326 321 324 314 313
321 322 321 325 327 329 329 328 328 326 325 325 328 327 327 328 326 326 327 327 325 325 325 327 326 326 326 326 326 326 326 326 325 324 324 324 325 322 316 315 312 313 317
320 319 320 322 328 327 328 329 324 323 323 323 326 326 324 327 328 326 325 326 325 326 325 326 325 325 325 324 325 324 325 325 321 318 317 316 315 315 317 318 318 319 321
320 319 320 318 329 328 326 328 325 324 324 318 323 326 329 328 328 328 328 328 326 326 326 326 325 325 325 325 324 323 321 321 321 322 322 322 322 322 322 322 322 322 324
320 319 319 317 326 329 327 325 325 325 325 317 319 319 321 328 329 329 328 328 327 326 325 326 327 327 327 324 323 324 324 324 325 325 324 323 323 325 323 323 324 326 326
323 319 319 319 318 322 328 327 325 325 325 319 318 318 317 318 322 327 329 329 328 327 327 328 328 324 323 322 321 323 323 324 324 323 324 325 322 316 313 313 313 313 313
324 321 320 320 316 319 327 327 327 326 325 323 316 318 318 319 320 321 322 325 327 328 328 328 324 319 319 318 319 320 319 320 320 317 314 312 314 316 317 317 317 316 315
324 320 321 321 319 319 319 323 324 325 325 323 324 320 317 319 319 319 318 318 318 317 317 317 317 318 317 317 317 316 314 313 312 313 313 313 315 317 318 318 317 316 316
324 321 321 321 320 318 317 318 321 321 321 325 326 324 321 316 318 320 320 319 317 317 316 317 317 317 316 317 318 317 317 317 316 315 311 313 318 319 319 317 316 317 316
324 322 321 322 321 318 318 318 317 320 316 323 327 326 324 318 312 314 317 318 315 314 315 315 315 314 313 314 316 316 315 313 311 311 313 317 319 319 318 316 316 315 309
324 322 322 322 322 320 319 319 317 316 316 317 323 324 324 319 311 309 311 315 312 311 310 310 311 310 310 312 314 312 311 311 313 313 316 319 320 318 318 316 312 305 301
323 323 322 322 322 321 320 320 319 318 316 317 319 320 319 316 311 307 308 313 311 312 312 310 311 312 313 313 312 312 312 315 317 317 319 320 321 320 316 310 302 298 296
322 323 323 323 323 322 321 321 320 319 319 317 316 318 318 312 313 311 306 309 312 313 315 315 314 314 314 314 312 313 316 318 319 319 321 321 319 313 310 300 298 296 295
323 322 323 323 323 322 322 321 321 319 316 314 313 314 317 316 317 319 318 306 311 312 316 317 317 317 314 313 315 319 321 321 321 320 320 318 314 309 300 297 296 296 296
325 323 323 324 323 323 322 322 321 321 319 315 315 312 317 318 319 319 320 315 307 311 313 317 318 315 313 318 322 323 323 322 321 320 318 315 309 300 297 297 296 296 295
328 325 324 324 324 323 323 322 322 321 321 318 315 315 315 318 319 319 320 320 315 309 312 314 316 316 313 319 321 322 323 321 320 319 317 314 300 298 297 297 296 296 295
330 328 325 324 324 324 324 323 323 323 322 322 318 315 315 315 318 319 319 321 320 318 316 315 315 314 313 315 319 321 323 322 321 320 317 302 298 297 297 296 296 296 295
332 331 328 326 325 325 324 324 324 323 323 323 323 320 318 317 316 317 318 319 319 320 320 319 316 315 314 314 317 320 324 322 321 317 303 298 297 298 296 296 295 295 294
333 332 331 329 328 328 326 325 325 324 324 324 325 324 322 321 320 318 317 317 318 318 319 319 318 317 316 316 317 320 323 322 320 311 298 297 299 297 297 296 295 295 294
332 332 332 331 330 329 328 327 326 325 325 325 324 325 324 323 321 320 320 319 318 317 318 319 318 317 316 318 320 321 320 318 309 300 297 302 300 296 297 297 296 295 293
333 332 332 331 331 331 330 329 328 327 326 326 325 325 325 324 323 323 322 321 320 319 317 318 318 317 317 319 320 320 318 305 299 298 299 302 297 297 297 297 296 294 292
333 332 332 332 331 331 331 331 330 329 328 327 326 325 325 325 324 323 322 322 322 320 318 317 317 316 318 319 319 317 312 300 299 305 303 298 297 297 297 296 295 293 292

GFSGL_850_thetae_030.txt.gz
Theta_e
326 325 327 326 326 325 325 325 326 326 326 326 326 324 324 324 325 325 325 325 324 325 324 324 326 327 327 327 327 327 327 328 327 327 328 328 328 327 325 324 325 326 326
326 326 328 325 326 327 325 326 325 325 325 326 326 325 325 324 324 324 324 324 324 322 321 325 327 327 328 327 328 328 328 328 328 327 328 327 327 327 325 325 327 326 327
325 325 327 326 326 327 326 326 326 326 325 325 325 325 325 325 324 324 325 323 322 323 325 326 326 327 328 328 328 327 328 328 328 327 327 326 326 326 325 327 327 328 327
324 324 326 327 325 325 327 327 327 327 325 323 324 325 325 325 324 324 324 323 323 326 325 326 327 327 328 327 327 327 328 327 327 327 327 326 326 325 327 326 326 325 327
323 324 325 327 326 327 325 325 324 326 327 325 324 324 325 325 325 325 327 327 326 325 325 325 326 327 327 327 327 328 328 327 327 328 326 326 326 328 326 325 325 327 320
322 323 324 326 326 325 326 325 325 326 327 327 327 325 326 326 327 325 325 325 326 326 326 326 327 326 327 327 326 327 327 327 327 328 326 326 326 326 326 326 326 325 313
322 323 321 325 327 327 326 324 324 323 327 327 326 326 326 325 326 327 326 325 324 327 327 327 327 327 327 326 326 327 326 327 327 327 326 327 326 326 325 324 325 314 318
323 322 320 326 327 329 326 323 321 319 325 323 327 327 328 326 326 327 326 325 325 327 326 326 326 326 325 325 326 325 324 325 324 324 326 326 323 317 316 315 315 319 321
323 321 320 323 326 327 328 324 323 318 321 325 328 327 327 327 324 327 326 324 326 325 324 325 325 324 323 325 322 324 323 321 320 320 319 319 318 320 321 320 321 321 322
323 320 319 318 325 326 326 325 323 318 318 319 326 328 327 327 324 326 326 325 325 324 323 324 324 323 323 323 321 321 322 322 321 321 322 323 323 322 322 321 320 316 316
323 321 319 318 321 326 326 324 323 321 315 317 318 322 328 328 327 326 325 324 325 325 324 324 325 325 323 323 322 323 324 324 323 323 323 323 318 312 313 315 317 317 317
323 322 319 318 319 325 326 326 324 323 319 314 317 318 321 326 328 328 326 325 324 324 326 326 326 324 323 322 323 323 323 322 321 320 317 313 313 314 316 317 318 318 319
323 323 320 318 318 322 325 327 326 325 323 314 314 316 317 320 327 328 326 325 325 326 326 326 326 323 321 320 320 320 319 318 318 315 313 313 314 314 315 318 319 320 320
322 323 321 319 319 317 320 322 326 326 324 321 313 313 314 316 318 322 326 326 326 327 327 327 323 319 318 317 317 316 315 314 313 313 314 313 312 314 317 319 320 319 318
322 323 322 319 320 317 317 318 322 322 319 318 317 315 312 313 314 315 317 318 319 320 322 323 319 317 317 316 316 315 315 315 316 316 315 312 312 315 318 320 320 319 314
323 322 322 319 320 319 318 317 318 318 318 319 317 315 318 316 313 313 315 317 316 317 317 317 317 317 316 314 314 315 315 316 316 314 312 311 312 315 318 320 319 315 308
323 322 322 320 320 320 320 319 318 318 319 319 319 317 316 320 320 319 313 313 317 318 317 315 314 314 313 313 313 314 315 315 315 312 311 311 313 316 318 319 317 311 305
324 323 321 321 319 320 321 320 319 319 317 316 317 317 316 319 322 321 319 314 312 313 315 314 313 312 312 312 312 312 313 314 314 312 311 312 314 316 318 318 314 309 302
325 324 323 321 319 319 320 321 321 320 319 318 315 314 315 316 319 320 321 318 312 309 310 312 311 311 311 311 312 312 311 312 312 312 311 311 315 317 317 316 311 306 298
326 325 324 322 321 319 319 320 321 321 321 320 319 318 315 313 314 315 315 315 313 310 308 309 311 310 312 312 312 311 311 311 311 312 311 312 316 317 317 314 308 301 295
327 326 324 324 323 321 320 320 320 321 321 321 320 320 319 317 312 310 312 312 311 311 311 309 308 309 311 312 314 314 314 314 315 313 312 314 317 316 315 309 304 297 296
327 327 325 324 324 323 322 321 321 321 322 322 322 321 320 320 319 314 310 311 310 311 312 314 315 315 312 309 310 314 316 316 318 315 314 316 317 316 312 305 302 296 296
329 328 326 325 325 324 324 323 323 322 322 323 323 322 322 321 321 320 317 313 311 311 312 315 317 318 318 319 317 311 309 312 315 317 316 316 318 316 310 305 298 296 301
330 330 329 328 327 326 325 324 324 324 323 323 323 324 323 323 322 322 322 322 318 315 314 313 314 316 317 318 319 320 319 316 310 311 316 316 315 314 308 302 298 301 302
330 330 330 330 329 329 329 328 328 327 325 325 325 325 326 325 324 324 324 324 324 323 323 321 320 319 318 317 316 317 317 318 318 311 311 313 315 315 307 300 299 300 299
330 331 331 331 330 330 331 330 330 330 329 329 328 328 328 328 327 326 325 324 324 324 324 324 324 323 322 321 320 319 317 317 317 314 311 313 314 311 306 300 300 300 298

GFSGL_850_thetae_033.txt.gz
Theta_e
326 325 327 325 326 325 325 325 326 326 326 326 324 323 325 325 324 324 324 323 325 325 325 325 325 326 327 326 326 328 328 328 327 327 328 328 326 325 326 326 326 326 326
326 325 327 325 327 326 326 325 325 325 326 326 325 324 324 324 324 325 325 325 325 324 322 323 324 327 327 326 327 327 327 328 327 327 327 326 325 325 326 325 326 326 327
326 326 327 326 326 326 325 326 326 325 325 325 326 325 324 324 324 324 324 324 324 321 324 326 326 327 327 327 328 328 328 328 328 325 328 327 326 325 325 326 326 327 327
325 325 327 325 325 327 326 327 327 325 324 325 325 326 325 324 324 324 324 322 324 326 326 327 326 327 328 328 327 327 328 328 327 327 327 326 326 325 326 326 327 327 318
324 325 327 326 326 326 324 325 326 327 324 324 325 325 325 325 324 325 323 323 326 325 325 327 327 327 328 327 327 328 328 327 327 327 326 326 325 325 327 326 325 324 314
323 325 326 326 325 326 325 325 325 327 327 324 325 325 325 325 325 327 327 325 326 326 325 326 327 326 327 327 328 328 327 327 326 326 326 326 325 325 326 325 326 319 318
323 324 324 326 325 326 325 324 323 326 327 326 326 326 326 327 325 325 326 325 325 326 326 326 326 326 327 326 327 327 327 327 326 326 326 325 326 326 325 325 326 314 316
324 323 322 326 327 326 322 321 319 326 326 327 327 326 325 326 327 326 326 325 326 326 325 327 327 327 326 327 327 327 327 327 326 326 326 326 326 326 326 326 325 315 321
323 322 322 326 328 327 324 322 318 322 326 328 327 327 326 326 327 326 325 327 326 326 326 326 325 326 326 326 323 325 324 325 327 327 327 326 326 320 317 321 316 317 322
322 322 321 324 326 328 325 323 318 319 322 328 327 327 326 325 326 326 325 325 325 324 325 324 324 325 325 322 321 321 321 322 323 322 319 318 316 318 320 321 321 324 321
322 322 320 319 325 326 327 323 320 317 318 322 328 327 326 325 326 326 325 324 323 323 324 323 324 322 323 322 322 321 320 320 320 321 321 321 321 321 321 320 317 317 317
322 322 321 319 321 327 326 324 322 317 316 318 320 328 328 326 325 326 325 325 324 323 323 325 325 323 323 322 323 324 323 322 321 322 323 322 316 314 314 316 317 318 319
323 323 322 319 319 325 325 325 324 322 316 315 318 320 326 328 328 326 326 325 325 325 324 326 324 322 322 323 324 323 322 321 320 320 315 313 313 315 315 317 318 319 319
322 323 323 320 319 320 326 326 325 325 323 314 316 320 320 327 328 326 325 325 325 325 326 326 325 322 321 321 321 321 320 319 318 315 313 313 314 314 315 317 319 319 318
321 322 323 321 318 318 321 323 326 326 323 318 313 314 314 319 325 327 325 325 327 327 327 326 325 320 319 318 318 318 317 316 313 313 314 314 313 313 315 317 318 318 316
321 321 322 322 319 319 317 317 317 324 323 321 318 313 311 313 314 319 324 326 326 327 327 327 324 320 317 316 316 315 315 315 315 315 316 315 312 313 315 317 318 317 314
322 321 321 322 319 319 319 318 317 318 321 320 319 317 318 314 312 313 315 316 317 318 318 318 319 317 316 316 315 314 315 315 316 316 315 313 311 311 313 316 317 316 314
324 323 321 320 319 319 319 319 321 320 318 318 318 318 316 319 321 317 314 314 316 316 316 320 317 316 316 315 314 314 314 315 315 315 315 312 311 311 314 315 317 317 315
325 324 322 321 319 317 319 320 320 322 322 322 316 317 317 316 320 323 323 320 314 312 314 314 313 313 312 313 313 313 313 313 313 314 315 312 311 311 313 315 316 316 313
326 325 324 322 321 319 318 320 321 321 322 322 320 316 314 316 316 319 320 320 319 316 311 310 311 312 312 312 311 311 311 312 312 311 311 310 310 311 312 314 315 315 310
326 326 324 323 323 321 318 318 320 320 321 321 320 319 318 315 313 313 314 315 316 314 312 310 309 309 310 311 311 311 312 312 311 311 310 309 309 311 312 314 315 311 307
327 326 326 324 323 323 321 318 318 319 319 320 320 321 320 319 319 319 316 312 311 311 311 310 310 309 308 309 310 311 311 313 314 314 314 312 311 310 312 314 315 312 307
327 327 326 325 324 323 323 322 320 319 319 319 320 320 321 321 320 320 320 319 317 312 310 310 311 311 311 313 314 314 313 310 310 312 315 315 315 314 313 314 314 310 308
328 327 327 326 325 324 324 324 323 322 321 321 321 321 322 322 322 322 321 321 321 321 317 312 311 310 311 313 315 317 318 318 319 319 314 311 314 316 314 314 313 308 306
327 327 327 326 326 326 324 324 324 324 324 323 323 322 322 323 323 323 323 322 322 322 322 321 318 316 315 314 313 314 315 316 317 317 318 317 313 314 314 314 313 309 302
327 328 328 328 327 327 326 326 327 326 325 325 324 324 324 324 324 325 325 324 324 324 323 323 323 323 323 322 321 321 320 319 318 317 316 316 315 312 313 313 311 306 301

GFSGL_850_thetae_036.txt.gz
Theta_e
330 332 333 332 331 330 330 331 329 329 331 330 330 330 329 328 328 326 327 328 328 327 327 327 325 325 326 327 327 327 324 326 326 328 327 325 325 324 325 324 325 326 325
330 332 333 332 331 330 331 331 330 330 330 330 330 330 330 330 327 328 328 328 329 329 326 326 327 327 326 328 328 328 328 328 327 328 326 326 326 326 326 326 325 326 324
330 331 332 332 332 331 331 329 331 330 330 331 330 330 330 329 328 328 327 328 324 329 326 324 328 329 327 327 328 328 328 328 327 327 326 326 326 325 324 324 325 325 322
329 330 332 332 332 331 331 331 330 330 329 330 330 330 330 329 328 327 326 326 323 328 326 328 328 331 329 329 330 329 328 328 327 326 325 325 326 326 325 325 325 324 322
329 329 332 331 331 330 331 331 329 330 325 328 327 329 325 325 325 324 322 323 323 325 326 327 328 329 329 329 329 328 328 328 326 326 325 325 325 325 325 326 325 323 323
328 329 331 331 331 331 331 331 330 326 325 325 327 327 325 325 325 324 322 325 326 325 327 327 328 328 328 328 328 328 328 327 327 327 325 325 325 325 325 325 324 321 319
327 328 330 331 330 331 330 330 331 328 326 325 326 326 325 325 327 327 326 326 327 326 326 327 327 327 327 327 327 328 327 326 327 327 325 325 325 326 326 326 323 315 320
326 327 328 330 330 331 328 329 330 329 328 327 325 326 327 326 326 326 325 328 328 326 326 326 327 327 327 327 328 326 327 326 326 326 326 325 326 326 325 325 318 321 318
325 326 327 329 331 330 327 327 330 329 328 328 327 326 326 327 326 326 326 327 328 327 327 327 327 327 327 327 325 327 326 326 326 326 326 325 325 325 325 326 322 321 321
324 325 326 329 331 331 329 327 328 329 330 328 327 327 326 327 326 326 327 327 326 326 325 326 327 327 324 325 326 326 326 326 326 326 326 325 325 326 326 326 321 323 324
323 324 325 328 331 332 330 327 328 327 330 328 327 326 326 327 326 325 325 325 326 324 324 325 325 324 323 323 323 324 326 326 327 327 326 326 324 319 320 323 323 327 325
323 323 325 326 329 331 331 328 326 327 327 328 328 326 326 326 326 325 325 325 324 323 325 322 322 323 322 321 320 320 321 319 322 322 323 322 323 323 323 322 322 322 322
324 324 325 326 327 331 331 328 326 325 324 326 331 329 325 325 327 326 325 323 324 325 327 326 323 322 322 323 323 321 321 324 324 325 325 324 323 321 317 317 317 318 318
325 325 325 326 325 329 330 329 326 324 321 322 325 330 330 328 326 326 325 325 325 327 327 325 323 323 324 325 324 323 324 324 324 323 319 314 314 314 315 316 318 318 319
326 326 326 325 325 327 329 329 328 327 323 319 322 325 329 331 329 326 326 326 326 329 327 325 324 325 323 323 322 321 321 319 318 315 313 313 314 314 315 317 317 318 316
326 326 326 325 324 325 325 328 328 328 325 321 319 321 323 327 328 325 325 325 325 327 327 328 327 325 322 322 322 322 321 318 320 319 317 316 316 316 316 316 316 317 316
323 326 326 325 324 324 324 325 325 325 326 324 320 315 320 317 319 326 326 326 327 327 329 329 327 324 322 320 320 321 320 320 319 319 319 318 317 316 315 316 316 316 314
328 325 325 324 324 323 324 323 322 322 323 324 320 318 318 316 313 315 319 323 325 325 326 326 326 325 322 320 320 320 320 321 320 320 320 319 318 316 315 316 316 315 313
330 327 325 325 324 322 323 323 321 321 321 322 322 318 317 318 320 317 315 318 320 320 320 321 322 321 321 321 321 320 319 320 320 319 319 319 317 316 316 315 316 314 311
330 328 326 326 325 323 322 323 322 322 322 322 322 322 319 316 318 321 319 317 319 318 318 319 320 321 321 321 320 320 320 319 318 318 318 318 317 316 316 316 315 311 310
330 328 326 327 326 325 323 322 322 322 323 323 323 323 321 314 319 320 322 321 320 321 320 318 316 317 318 319 320 319 318 318 318 317 317 317 317 316 316 316 316 311 311
330 329 326 327 327 326 325 322 322 322 323 323 323 323 322 319 319 319 320 321 321 321 321 321 319 318 316 316 317 317 317 317 317 317 316 316 316 315 315 315 313 310 310
329 329 327 327 327 327 326 325 323 322 323 323 323 323 324 323 322 321 321 321 322 321 321 321 320 320 318 317 316 315 315 315 316 316 316 316 315 315 314 313 311 309 310
329 329 328 327 327 327 327 326 326 324 323 323 323 322 323 324 324 323 322 323 324 324 323 322 321 320 319 319 318 318 316 315 315 315 315 315 315 315 314 312 309 308 309
329 329 329 328 328 327 327 327 327 327 325 324 324 324 323 324 325 324 324 324 325 326 325 324 323 321 318 317 318 319 318 317 316 318 318 317 316 315 313 310 309 308 309
328 329 329 329 328 328 328 328 328 328 327 327 326 326 326 326 326 326 325 325 326 326 326 325 323 322 322 320 317 318 317 315 314 315 317 317 316 315 314 312 309 310 309

GFSGL_850_thetae_042.txt.gz
Theta_e
333 333 332 332 332 331 331 332 331 330 330 330 329 328 328 329 328 327 326 328 327 326 327 324 325 325 327 328 329 330 330 331 330 329 327 327 330 330 330 329 328 326 323
332 333 331 333 332 331 332 330 332 330 330 330 329 329 329 328 329 329 329 330 327 327 325 325 325 328 328 329 329 328 326 325 324 326 327 327 328 329 329 325 323 324 325
332 332 333 333 331 332 331 331 330 329 331 331 329 329 329 330 330 328 330 327 327 325 325 325 326 327 329 329 327 326 325 326 325 325 327 328 327 326 324 324 324 324 324
332 332 333 333 331 330 331 331 332 330 330 331 330 329 328 329 329 329 328 328 327 326 328 329 328 327 328 326 326 328 328 328 326 326 326 324 324 323 324 324 324 323 323
331 333 331 332 330 330 329 330 330 330 329 331 330 330 329 329 329 329 328 329 329 328 329 329 329 329 329 330 329 328 328 327 325 324 324 324 324 324 323 323 323 323 321
331 334 331 333 331 330 329 329 329 329 329 329 329 330 330 329 329 327 326 328 328 326 331 329 329 329 330 329 329 328 327 326 325 324 324 324 324 324 324 324 323 322 318
331 334 332 331 330 329 330 330 330 329 330 330 329 330 329 328 324 324 329 329 329 328 328 329 329 329 328 329 328 328 327 326 325 324 324 323 323 324 324 324 323 323 322
331 331 332 332 329 330 329 330 330 328 328 329 329 329 328 326 325 326 326 331 328 328 328 328 328 328 328 328 328 327 326 326 325 324 325 324 325 324 325 324 323 320 317
330 331 331 332 330 329 331 328 329 328 327 327 330 328 327 326 326 326 330 329 328 327 327 328 328 327 327 328 327 327 326 326 325 325 326 325 324 324 324 323 323 321 320
329 330 331 332 330 328 329 330 327 328 329 328 327 328 326 326 326 327 326 326 327 327 327 327 327 327 327 327 327 326 326 326 326 326 325 325 324 324 321 319 318 317 318
329 330 330 332 330 329 328 330 328 329 330 330 329 328 326 326 326 327 326 327 327 327 327 326 326 326 325 327 326 325 327 326 326 325 325 325 325 324 322 320 322 323 318
328 329 330 333 332 330 327 329 330 327 328 328 328 329 327 327 326 325 327 325 325 327 326 325 326 326 327 325 326 325 326 325 325 325 325 325 325 325 325 323 324 325 324
327 328 329 333 333 330 328 329 329 331 328 328 328 328 327 326 325 325 325 326 326 326 325 325 324 326 326 326 326 325 326 326 326 325 325 325 324 325 325 324 323 323 323
326 328 329 332 335 332 330 327 327 331 331 329 329 328 327 326 324 325 325 326 324 324 323 322 321 323 324 327 327 327 326 325 325 325 325 326 325 324 326 324 322 321 324
326 327 328 331 334 333 330 328 326 327 330 332 330 329 327 326 325 324 324 326 325 324 322 321 321 320 320 323 322 324 324 322 322 322 322 322 322 324 324 323 321 322 322
326 327 328 329 331 333 332 329 328 324 324 327 332 332 331 326 326 324 324 326 327 324 323 322 324 323 321 319 321 326 327 326 326 327 327 326 325 325 325 322 318 317 317
327 327 328 329 328 332 333 331 329 327 323 322 326 331 332 331 329 325 324 327 329 327 328 325 326 325 322 319 320 320 323 324 326 326 325 324 320 315 316 315 316 317 318
327 327 328 327 328 329 331 333 331 329 328 322 321 324 326 330 332 329 325 327 327 328 328 326 327 326 325 323 323 322 322 322 322 320 322 321 317 316 318 318 319 318 319
328 328 328 326 328 326 328 329 332 331 329 329 321 320 322 323 327 327 326 326 326 328 328 330 328 330 326 324 323 323 324 324 323 323 323 323 321 320 319 319 319 319 319
328 328 327 329 327 327 326 327 328 330 330 329 328 319 317 320 319 321 326 325 326 326 326 327 329 331 329 327 324 323 322 323 323 323 322 321 321 321 321 320 319 319 318
330 327 328 331 327 328 326 326 326 326 328 327 328 327 321 313 315 314 317 326 326 329 329 328 327 329 327 327 327 324 322 321 322 322 322 322 322 321 322 322 321 320 319
331 330 329 328 330 328 327 326 326 325 325 325 325 326 325 324 316 312 312 311 316 324 327 327 324 323 324 324 324 323 323 323 322 322 322 322 323 322 322 322 322 321 320
333 332 331 329 329 330 328 327 326 325 325 324 324 325 325 324 324 322 316 313 312 310 312 318 321 321 321 321 320 322 323 323 322 323 323 322 322 322 322 322 322 321 320
333 334 334 332 332 330 330 328 326 325 325 325 324 325 324 324 323 323 323 321 320 320 319 318 313 318 322 321 320 320 320 320 321 322 322 322 322 322 321 321 321 321 320
334 334 334 335 332 332 331 330 328 326 325 324 324 324 325 325 324 324 323 323 321 321 322 322 321 321 318 320 323 323 322 320 319 318 319 320 321 321 320 320 319 319 319
332 334 333 335 335 333 331 332 330 328 327 325 324 324 325 325 325 324 324 324 323 322 322 322 323 322 322 323 320 320 322 322 321 320 319 318 317 318 318 318 319 318 318

GFSGL_850_thetae_048.txt.gz
Theta_e
330 327 329 330 330 330 330 330 329 330 329 328 326 327 327 327 327 327 325 324 325 326 326 326 324 324 325 324 326 325 325 325 325 329 330 324 323 324 328 327 330 329 328
331 330 332 331 330 330 330 331 329 329 329 327 327 327 327 327 328 327 326 325 327 326 326 325 325 324 324 323 324 327 326 325 325 327 327 326 326 327 326 327 327 327 327
329 331 331 330 330 330 330 330 329 328 329 328 328 327 327 327 327 328 328 327 327 325 325 326 327 327 326 326 326 327 325 327 325 326 328 326 327 328 325 325 327 324 320
331 330 331 330 330 330 330 329 328 329 329 329 328 328 328 327 328 328 327 327 325 325 326 327 328 328 328 327 327 327 327 327 327 327 327 326 326 326 326 324 321 318 318
331 330 330 330 329 330 329 329 328 329 330 330 328 327 329 329 328 328 327 328 326 327 328 327 327 325 326 326 326 325 324 325 326 327 326 327 325 324 322 322 321 321 322
331 330 329 329 328 328 328 329 329 329 330 330 328 327 327 327 328 328 328 328 327 328 328 328 328 328 327 326 327 328 327 325 326 326 324 325 323 323 324 323 322 322 321
332 330 330 329 327 328 328 328 329 328 330 330 329 328 327 327 328 326 326 327 326 326 327 328 328 329 329 329 328 327 327 326 326 326 325 325 324 325 323 322 323 323 323
331 331 330 328 327 327 329 328 329 329 329 328 327 328 329 329 326 327 327 327 326 328 328 328 328 328 328 328 326 326 325 325 325 325 325 325 325 323 323 323 323 323 322
332 330 330 328 327 327 328 328 329 329 328 328 328 328 327 325 324 326 327 327 327 327 328 327 326 327 327 327 326 324 324 324 325 325 325 324 323 324 324 324 323 322 320
332 331 330 328 328 327 327 326 328 328 327 328 327 326 326 324 326 328 327 327 326 326 326 325 326 326 327 325 325 324 324 324 324 323 323 323 324 324 323 323 322 323 323
330 331 331 329 328 328 327 325 327 327 327 328 326 326 326 326 327 327 327 326 326 326 326 326 326 327 327 325 325 324 324 324 324 323 324 324 323 323 323 323 323 323 319
330 331 331 330 329 328 327 325 327 328 327 326 326 325 325 326 326 325 326 326 326 325 324 324 325 326 327 326 325 324 324 324 324 324 323 323 323 323 322 320 319 318 318
329 330 330 330 329 329 327 324 327 329 327 326 326 325 325 326 327 325 326 326 325 325 326 325 325 326 326 326 325 325 324 325 324 324 324 323 323 322 321 319 320 322 320
328 330 330 330 329 329 327 324 328 329 328 326 326 326 327 327 325 325 325 326 325 326 326 325 325 325 325 326 326 325 325 325 325 323 323 321 321 319 316 320 323 323 324
327 330 329 330 331 331 329 318 329 327 327 327 325 325 325 324 325 325 325 326 325 325 326 325 325 325 325 326 325 325 325 326 325 325 324 324 323 319 318 320 322 323 323
327 329 329 330 331 331 331 320 328 329 329 328 327 326 325 324 325 325 326 325 324 325 325 325 324 325 325 325 325 324 324 324 325 325 324 324 324 324 324 324 323 322 320
326 328 328 329 331 331 332 320 323 326 328 330 330 330 327 324 325 324 324 323 323 323 324 325 325 325 324 325 325 325 324 323 323 324 323 322 323 323 324 323 320 320 320
325 326 327 328 329 329 331 327 322 324 325 326 330 331 330 326 324 325 323 322 322 321 321 321 321 322 321 323 323 323 323 324 324 323 323 323 322 320 317 317 320 321 321
325 326 326 326 327 327 328 332 326 326 326 323 324 331 331 329 325 324 324 323 322 321 320 320 319 319 320 318 319 319 320 322 322 322 322 323 323 324 324 324 323 322 318
326 326 326 325 326 326 328 331 331 330 327 327 324 322 328 331 328 325 324 324 324 323 322 321 320 322 321 318 316 318 321 321 321 322 322 323 324 325 324 323 321 321 319
328 327 327 326 325 326 326 328 332 332 331 329 328 327 323 322 327 329 329 325 324 324 325 324 323 323 323 324 325 325 322 320 318 319 321 321 321 322 322 321 321 322 321
330 328 327 327 326 326 326 327 328 329 330 331 331 330 328 326 322 319 321 324 326 325 324 324 325 325 324 324 325 326 328 326 324 323 322 322 323 323 323 323 322 322 322
331 329 328 327 327 326 326 326 328 327 327 328 328 329 330 329 327 325 322 317 316 316 321 324 324 324 324 326 326 326 329 329 330 328 324 323 322 322 322 322 321 322 322
329 330 329 328 327 327 326 326 327 328 327 326 327 326 326 327 328 326 324 323 322 318 314 312 314 320 322 322 323 326 329 329 327 327 327 326 325 324 323 322 321 321 322
330 329 329 328 328 328 327 327 328 328 328 327 326 326 326 325 325 325 324 324 323 323 322 320 316 312 310 311 316 319 322 325 328 327 325 324 323 323 323 323 322 322 322
332 332 331 330 330 328 328 328 327 329 329 328 328 327 326 326 325 325 324 324 323 323 323 323 323 322 321 319 314 311 312 315 317 320 321 321 321 320 320 321 321 322 322